Time,TemperatureF,DewpointF,PressureIn,WindDirection,WindDirectionDegrees,WindSpeedMPH,WindSpeedGustMPH,Humidity,HourlyPrecipIn,Conditions,Clouds,dailyrainin,SolarRadiationWatts/m^2,SoftwareType,DateUTC
2013-07-03 00:01:00,85.5,51.4,29.73,East,89,7.0,11.0,31,0.00,,,0.00,0,WeatherCatV1.11B39,2013-07-03 07:01:00,
2013-07-03 00:07:00,85.5,51.4,29.74,ENE,63,7.0,14.0,31,0.00,,,0.00,0,WeatherCatV1.11B39,2013-07-03 07:07:00,
2013-07-03 00:08:00,85.5,50.5,29.74,East,84,9.0,16.0,30,0.00,,,0.00,0,WeatherCatV1.11B39,2013-07-03 07:08:00,
2013-07-03 00:13:00,85.5,51.4,29.74,ENE,70,10.0,11.0,31,0.00,,,0.00,0,WeatherCatV1.11B39,2013-07-03 07:13:00,
2013-07-03 00:18:00,85.4,51.3,29.74,East,87,6.0,11.0,31,0.00,,,0.00,0,WeatherCatV1.11B39,2013-07-03 07:18:00,
2013-07-03 00:21:00,85.4,51.3,29.74,ENE,71,6.0,16.0,31,0.00,,,0.00,0,WeatherCatV1.11B39,2013-07-03 07:21:00,
2013-07-03 00:26:00,85.3,51.2,29.74,NE,42,8.0,13.0,31,0.00,,,0.00,0,WeatherCatV1.11B39,2013-07-03 07:26:00,
2013-07-03 00:31:00,85.3,51.2,29.73,NE,42,6.0,11.0,31,0.00,,,0.00,0,WeatherCatV1.11B39,2013-07-03 07:31:00,
2013-07-03 00:36:00,85.4,51.3,29.73,NE,54,14.0,14.0,31,0.00,,,0.00,0,WeatherCatV1.11B39,2013-07-03 07:36:00,
2013-07-03 00:41:00,85.7,50.7,29.73,NE,54,8.0,14.0,30,0.00,,,0.00,0,WeatherCatV1.11B39,2013-07-03 07:41:00,
2013-07-03 00:46:00,86.1,50.1,29.73,NNE,22,5.0,12.0,29,0.00,,,0.00,0,WeatherCatV1.11B39,2013-07-03 07:46:00,
2013-07-03 00:48:00,86.3,50.3,29.73,NE,41,5.0,8.0,29,0.00,,,0.00,0,WeatherCatV1.11B39,2013-07-03 07:48:00,
2013-07-03 00:52:00,86.4,50.3,29.72,NNE,30,4.0,8.0,29,0.00,,,0.00,0,WeatherCatV1.11B39,2013-07-03 07:52:00,
2013-07-03 00:58:00,86.5,49.5,29.72,NE,37,1.0,7.0,28,0.00,,,0.00,0,WeatherCatV1.11B39,2013-07-03 07:58:00,
2013-07-03 01:01:00,86.6,49.6,29.72,South,174,5.0,8.0,28,0.00,,,0.00,0,WeatherCatV1.11B39,2013-07-03 08:01:00,
2013-07-03 01:06:00,85.7,51.5,29.72,SSW,201,5.0,6.0,31,0.00,,,0.00,0,WeatherCatV1.11B39,2013-07-03 08:06:00,
2013-07-03 01:10:00,84.9,50.9,29.72,South,182,3.0,6.0,31,0.00,,,0.00,0,WeatherCatV1.11B39,2013-07-03 08:10:00,
2013-07-03 01:12:00,84.7,51.5,29.73,SSW,203,3.0,6.0,32,0.00,,,0.00,0,WeatherCatV1.11B39,2013-07-03 08:12:00,
2013-07-03 01:17:00,84.0,53.4,29.73,SSE,155,2.0,6.0,35,0.00,,,0.00,0,WeatherCatV1.11B39,2013-07-03 08:17:00,
2013-07-03 01:20:00,83.5,54.5,29.74,SSE,154,0.0,1.0,37,0.00,,,0.00,0,WeatherCatV1.11B39,2013-07-03 08:20:00,
2013-07-03 01:21:00,83.3,54.3,29.73,SSE,154,0.0,1.0,37,0.00,,,0.00,0,WeatherCatV1.11B39,2013-07-03 08:21:00,
2013-07-03 01:26:00,82.4,54.2,29.74,SSE,155,1.0,1.0,38,0.00,,,0.00,0,WeatherCatV1.11B39,2013-07-03 08:26:00,
2013-07-03 01:31:00,81.8,55.8,29.73,SSE,155,0.0,1.0,41,0.00,,,0.00,0,WeatherCatV1.11B39,2013-07-03 08:31:00,
2013-07-03 01:36:00,81.3,55.3,29.73,SSE,155,0.0,2.0,41,0.00,,,0.00,0,WeatherCatV1.11B39,2013-07-03 08:36:00,
2013-07-03 01:41:00,81.1,55.8,29.73,SSE,155,1.0,2.0,42,0.00,,,0.00,0,WeatherCatV1.11B39,2013-07-03 08:41:00,
2013-07-03 01:42:00,81.0,55.7,29.73,SSE,155,1.0,3.0,42,0.00,,,0.00,0,WeatherCatV1.11B39,2013-07-03 08:42:00,
2013-07-03 01:46:00,80.7,55.4,29.73,SSE,155,1.0,3.0,42,0.00,,,0.00,0,WeatherCatV1.11B39,2013-07-03 08:46:00,
2013-07-03 01:51:00,80.4,55.8,29.73,SSE,155,0.0,2.0,43,0.00,,,0.00,0,WeatherCatV1.11B39,2013-07-03 08:51:00,
2013-07-03 01:54:00,80.3,55.7,29.73,SSE,155,0.0,1.0,43,0.00,,,0.00,0,WeatherCatV1.11B39,2013-07-03 08:54:00,
2013-07-03 01:57:00,80.2,55.6,29.73,SSE,155,0.0,0.0,43,0.00,,,0.00,0,WeatherCatV1.11B39,2013-07-03 08:57:00,
2013-07-03 02:02:00,79.6,55.7,29.72,SSE,155,2.0,2.0,44,0.00,,,0.00,0,WeatherCatV1.11B39,2013-07-03 09:02:00,
2013-07-03 02:07:00,79.3,56.1,29.72,SSW,202,0.0,2.0,45,0.00,,,0.00,0,WeatherCatV1.11B39,2013-07-03 09:07:00,
2013-07-03 02:12:00,79.1,55.9,29.72,SSW,202,0.0,1.0,45,0.00,,,0.00,0,WeatherCatV1.11B39,2013-07-03 09:12:00,
2013-07-03 02:17:00,78.7,56.2,29.72,SSW,202,0.0,0.0,46,0.00,,,0.00,0,WeatherCatV1.11B39,2013-07-03 09:17:00,
2013-07-03 02:22:00,77.9,56.0,29.72,SSW,202,0.0,0.0,47,0.00,,,0.00,0,WeatherCatV1.11B39,2013-07-03 09:22:00,
2013-07-03 02:27:00,77.6,55.8,29.71,SSW,202,0.0,1.0,47,0.00,,,0.00,0,WeatherCatV1.11B39,2013-07-03 09:27:00,
2013-07-03 02:33:00,77.4,55.6,29.71,SSW,202,0.0,0.0,47,0.00,,,0.00,0,WeatherCatV1.11B39,2013-07-03 09:33:00,
2013-07-03 02:38:00,77.3,56.1,29.72,SSW,202,0.0,1.0,48,0.00,,,0.00,0,WeatherCatV1.11B39,2013-07-03 09:38:00,
2013-07-03 02:43:00,77.2,56.0,29.71,East,82,6.0,6.0,48,0.00,,,0.00,0,WeatherCatV1.11B39,2013-07-03 09:43:00,
2013-07-03 02:44:00,77.1,55.9,29.71,ENE,62,5.0,6.0,48,0.00,,,0.00,0,WeatherCatV1.11B39,2013-07-03 09:44:00,
2013-07-03 02:49:00,77.4,55.6,29.71,ENE,60,0.0,5.0,47,0.00,,,0.00,0,WeatherCatV1.11B39,2013-07-03 09:49:00,
2013-07-03 02:54:00,78.4,53.4,29.71,East,80,9.0,10.0,42,0.00,,,0.00,0,WeatherCatV1.11B39,2013-07-03 09:54:00,
2013-07-03 02:55:00,78.7,53.7,29.71,ENE,62,5.0,12.0,42,0.00,,,0.00,0,WeatherCatV1.11B39,2013-07-03 09:55:00,
2013-07-03 02:56:00,79.1,52.7,29.71,East,82,3.0,14.0,40,0.00,,,0.00,0,WeatherCatV1.11B39,2013-07-03 09:56:00,
2013-07-03 03:01:00,80.7,53.4,29.70,East,90,10.0,13.0,39,0.00,,,0.00,0,WeatherCatV1.11B39,2013-07-03 10:01:00,
2013-07-03 03:05:00,81.5,53.4,29.70,East,99,8.0,11.0,38,0.00,,,0.00,0,WeatherCatV1.11B39,2013-07-03 10:05:00,
2013-07-03 03:08:00,81.9,53.0,29.70,SSE,152,6.0,7.0,37,0.00,,,0.00,0,WeatherCatV1.11B39,2013-07-03 10:08:00,
2013-07-03 03:13:00,82.3,52.6,29.70,ENE,75,5.0,12.0,36,0.00,,,0.00,0,WeatherCatV1.11B39,2013-07-03 10:13:00,
2013-07-03 03:18:00,82.4,52.7,29.70,ESE,113,7.0,14.0,36,0.00,,,0.00,0,WeatherCatV1.11B39,2013-07-03 10:18:00,
2013-07-03 03:23:00,82.4,53.5,29.70,ENE,74,7.0,13.0,37,0.00,,,0.00,0,WeatherCatV1.11B39,2013-07-03 10:23:00,
2013-07-03 03:28:00,82.3,53.4,29.70,East,100,9.0,14.0,37,0.00,,,0.00,0,WeatherCatV1.11B39,2013-07-03 10:28:00,
2013-07-03 03:33:00,82.3,53.4,29.71,East,98,4.0,12.0,37,0.00,,,0.00,0,WeatherCatV1.11B39,2013-07-03 10:33:00,
2013-07-03 03:38:00,82.3,53.4,29.71,ESE,103,5.0,7.0,37,0.00,,,0.00,0,WeatherCatV1.11B39,2013-07-03 10:38:00,
2013-07-03 03:42:00,82.1,53.2,29.71,East,101,3.0,13.0,37,0.00,,,0.00,0,WeatherCatV1.11B39,2013-07-03 10:42:00,
2013-07-03 03:47:00,82.2,53.3,29.70,East,81,5.0,11.0,37,0.00,,,0.00,0,WeatherCatV1.11B39,2013-07-03 10:47:00,
2013-07-03 03:49:00,82.2,53.3,29.70,East,98,5.0,14.0,37,0.00,,,0.00,0,WeatherCatV1.11B39,2013-07-03 10:49:00,
2013-07-03 03:54:00,82.4,53.5,29.71,SE,126,9.0,9.0,37,0.00,,,0.00,0,WeatherCatV1.11B39,2013-07-03 10:54:00,
2013-07-03 03:56:00,82.4,52.7,29.70,ESE,107,5.0,14.0,36,0.00,,,0.00,0,WeatherCatV1.11B39,2013-07-03 10:56:00,
2013-07-03 03:57:00,82.4,52.7,29.70,ESE,111,8.0,14.0,36,0.00,,,0.00,0,WeatherCatV1.11B39,2013-07-03 10:57:00,
2013-07-03 04:02:00,82.3,53.4,29.71,SE,131,5.0,11.0,37,0.00,,,0.00,0,WeatherCatV1.11B39,2013-07-03 11:02:00,
2013-07-03 04:07:00,81.9,53.8,29.71,ESE,103,7.0,9.0,38,0.00,,,0.00,0,WeatherCatV1.11B39,2013-07-03 11:07:00,
2013-07-03 04:09:00,81.7,53.6,29.71,ESE,116,9.0,11.0,38,0.00,,,0.00,0,WeatherCatV1.11B39,2013-07-03 11:09:00,
2013-07-03 04:13:00,81.7,53.6,29.71,East,99,7.0,10.0,38,0.00,,,0.00,0,WeatherCatV1.11B39,2013-07-03 11:13:00,
2013-07-03 04:18:00,81.5,53.4,29.71,East,91,5.0,11.0,38,0.00,,,0.00,0,WeatherCatV1.11B39,2013-07-03 11:18:00,
2013-07-03 04:20:00,81.5,53.4,29.71,ESE,114,4.0,11.0,38,0.00,,,0.00,0,WeatherCatV1.11B39,2013-07-03 11:20:00,
2013-07-03 04:23:00,81.5,53.4,29.71,SE,130,8.0,13.0,38,0.00,,,0.00,0,WeatherCatV1.11B39,2013-07-03 11:23:00,
2013-07-03 04:25:00,81.6,52.8,29.71,East,101,9.0,10.0,37,0.00,,,0.00,0,WeatherCatV1.11B39,2013-07-03 11:25:00,
2013-07-03 04:30:00,81.7,52.9,29.72,SE,131,5.0,11.0,37,0.00,,,0.00,0,WeatherCatV1.11B39,2013-07-03 11:30:00,
2013-07-03 04:35:00,81.7,52.9,29.72,SE,133,6.0,11.0,37,0.00,,,0.00,0,WeatherCatV1.11B39,2013-07-03 11:35:00,
2013-07-03 04:40:00,81.7,52.9,29.72,ESE,109,8.0,9.0,37,0.00,,,0.00,0,WeatherCatV1.11B39,2013-07-03 11:40:00,
2013-07-03 04:45:00,81.7,52.9,29.72,ESE,120,4.0,9.0,37,0.00,,,0.00,0,WeatherCatV1.11B39,2013-07-03 11:45:00,
2013-07-03 04:50:00,81.6,52.8,29.72,ESE,112,8.0,11.0,37,0.00,,,0.00,0,WeatherCatV1.11B39,2013-07-03 11:50:00,
2013-07-03 04:54:00,81.5,52.7,29.72,SE,129,4.0,9.0,37,0.00,,,0.00,0,WeatherCatV1.11B39,2013-07-03 11:54:00,
2013-07-03 04:59:00,81.5,52.7,29.72,SE,135,4.0,9.0,37,0.00,,,0.00,0,WeatherCatV1.11B39,2013-07-03 11:59:00,
2013-07-03 05:03:00,81.5,52.7,29.72,SE,129,4.0,11.0,37,0.00,,,0.00,0,WeatherCatV1.11B39,2013-07-03 12:03:00,
2013-07-03 05:04:00,81.5,52.7,29.72,SE,127,5.0,6.0,37,0.00,,,0.00,0,WeatherCatV1.11B39,2013-07-03 12:04:00,
2013-07-03 05:09:00,81.5,52.7,29.72,SE,133,7.0,10.0,37,0.00,,,0.00,0,WeatherCatV1.11B39,2013-07-03 12:09:00,
2013-07-03 05:12:00,81.7,52.9,29.72,SE,138,4.0,6.0,37,0.00,,,0.00,0,WeatherCatV1.11B39,2013-07-03 12:12:00,
2013-07-03 05:17:00,81.7,52.9,29.72,ESE,107,10.0,10.0,37,0.00,,,0.00,0,WeatherCatV1.11B39,2013-07-03 12:17:00,
2013-07-03 05:20:00,81.7,52.9,29.72,SE,128,5.0,11.0,37,0.00,,,0.00,0,WeatherCatV1.11B39,2013-07-03 12:20:00,
2013-07-03 05:21:00,81.6,52.8,29.72,SE,125,4.0,10.0,37,0.00,,,0.00,0,WeatherCatV1.11B39,2013-07-03 12:21:00,
2013-07-03 05:26:00,81.6,52.8,29.72,SE,126,6.0,9.0,37,0.00,,,0.00,5,WeatherCatV1.11B39,2013-07-03 12:26:00,
2013-07-03 05:31:00,81.7,52.9,29.72,ESE,118,4.0,9.0,37,0.00,,,0.00,9,WeatherCatV1.11B39,2013-07-03 12:31:00,
2013-07-03 05:36:00,81.7,52.9,29.73,ESE,116,9.0,9.0,37,0.00,,,0.00,14,WeatherCatV1.11B39,2013-07-03 12:36:00,
2013-07-03 05:41:00,81.9,53.0,29.73,ESE,111,7.0,11.0,37,0.00,,,0.00,21,WeatherCatV1.11B39,2013-07-03 12:41:00,
2013-07-03 05:46:00,81.9,53.0,29.73,SE,145,4.0,11.0,37,0.00,,,0.00,30,WeatherCatV1.11B39,2013-07-03 12:46:00,
2013-07-03 05:51:00,81.9,53.0,29.73,SSE,159,8.0,8.0,37,0.00,,,0.00,51,WeatherCatV1.11B39,2013-07-03 12:51:00,
2013-07-03 05:56:00,81.6,53.5,29.73,SSE,147,6.0,7.0,38,0.00,,,0.00,63,WeatherCatV1.11B39,2013-07-03 12:56:00,
2013-07-03 06:01:00,81.7,53.6,29.73,SE,132,6.0,9.0,38,0.00,,,0.00,77,WeatherCatV1.11B39,2013-07-03 13:01:00,
2013-07-03 06:08:00,82.1,53.2,29.73,SE,138,4.0,7.0,37,0.00,,,0.00,91,WeatherCatV1.11B39,2013-07-03 13:08:00,
2013-07-03 06:13:00,82.4,53.5,29.74,SE,146,6.0,9.0,37,0.00,,,0.00,107,WeatherCatV1.11B39,2013-07-03 13:13:00,
2013-07-03 06:18:00,82.6,53.7,29.74,SE,132,5.0,8.0,37,0.00,,,0.00,123,WeatherCatV1.11B39,2013-07-03 13:18:00,
2013-07-03 06:23:00,82.9,53.9,29.74,SSE,155,3.0,7.0,37,0.00,,,0.00,137,WeatherCatV1.11B39,2013-07-03 13:23:00,
2013-07-03 06:27:00,83.0,54.0,29.74,SE,143,5.0,11.0,37,0.00,,,0.00,148,WeatherCatV1.11B39,2013-07-03 13:27:00,
2013-07-03 06:29:00,83.1,53.3,29.74,SSE,148,5.0,10.0,36,0.00,,,0.00,153,WeatherCatV1.11B39,2013-07-03 13:29:00,
2013-07-03 06:34:00,83.1,54.1,29.74,SE,144,1.0,6.0,37,0.00,,,0.00,167,WeatherCatV1.11B39,2013-07-03 13:34:00,
2013-07-03 06:39:00,83.3,55.0,29.75,SSE,151,2.0,3.0,38,0.00,,,0.00,188,WeatherCatV1.11B39,2013-07-03 13:39:00,
2013-07-03 06:40:00,83.3,55.0,29.75,SSE,153,0.0,3.0,38,0.00,,,0.00,193,WeatherCatV1.11B39,2013-07-03 13:40:00,
2013-07-03 06:45:00,83.6,55.3,29.75,WSW,242,2.0,5.0,38,0.00,,,0.00,204,WeatherCatV1.11B39,2013-07-03 13:45:00,
2013-07-03 06:50:00,83.2,55.6,29.75,West,263,4.0,5.0,39,0.00,,,0.00,209,WeatherCatV1.11B39,2013-07-03 13:50:00,
2013-07-03 06:55:00,82.9,55.4,29.75,WNW,282,2.0,5.0,39,0.00,,,0.00,221,WeatherCatV1.11B39,2013-07-03 13:55:00,
2013-07-03 07:00:00,83.4,55.8,29.75,WSW,257,1.0,3.0,39,0.00,,,0.00,237,WeatherCatV1.11B39,2013-07-03 14:00:00,
2013-07-03 07:05:00,84.0,55.6,29.75,WSW,239,4.0,4.0,38,0.00,,,0.00,255,WeatherCatV1.11B39,2013-07-03 14:05:00,
2013-07-03 07:09:00,84.2,55.1,29.75,WSW,239,0.0,3.0,37,0.00,,,0.00,264,WeatherCatV1.11B39,2013-07-03 14:09:00,
2013-07-03 07:14:00,84.3,55.9,29.75,West,280,3.0,3.0,38,0.00,,,0.00,278,WeatherCatV1.11B39,2013-07-03 14:14:00,
2013-07-03 07:18:00,84.3,55.9,29.75,West,280,2.0,3.0,38,0.00,,,0.00,299,WeatherCatV1.11B39,2013-07-03 14:18:00,
2013-07-03 07:23:00,84.8,55.6,29.75,West,281,2.0,4.0,37,0.00,,,0.00,316,WeatherCatV1.11B39,2013-07-03 14:23:00,
2013-07-03 07:28:00,85.3,56.0,29.75,West,269,4.0,5.0,37,0.00,,,0.00,302,WeatherCatV1.11B39,2013-07-03 14:28:00,
2013-07-03 07:33:00,84.9,56.4,29.75,WSW,254,0.0,3.0,38,0.00,,,0.00,83,WeatherCatV1.11B39,2013-07-03 14:33:00,
2013-07-03 07:38:00,84.4,56.0,29.75,WSW,254,0.0,2.0,38,0.00,,,0.00,149,WeatherCatV1.11B39,2013-07-03 14:38:00,
2013-07-03 07:43:00,85.0,55.8,29.75,WSW,254,2.0,2.0,37,0.00,,,0.00,429,WeatherCatV1.11B39,2013-07-03 14:43:00,
2013-07-03 07:45:00,85.5,56.2,29.75,WSW,252,2.0,4.0,37,0.00,,,0.00,429,WeatherCatV1.11B39,2013-07-03 14:45:00,
2013-07-03 07:50:00,87.1,56.1,29.75,SSW,207,5.0,5.0,35,0.00,,,0.00,420,WeatherCatV1.11B39,2013-07-03 14:50:00,
2013-07-03 07:55:00,87.4,55.5,29.75,SSW,207,4.0,4.0,34,0.00,,,0.00,424,WeatherCatV1.11B39,2013-07-03 14:55:00,
2013-07-03 07:56:00,87.4,55.5,29.75,SSW,207,1.0,4.0,34,0.00,,,0.00,431,WeatherCatV1.11B39,2013-07-03 14:56:00,
2013-07-03 08:01:00,87.7,55.0,29.75,SSW,208,2.0,4.0,33,0.00,,,0.00,443,WeatherCatV1.11B39,2013-07-03 15:01:00,
2013-07-03 08:02:00,87.7,55.0,29.75,SSW,208,1.0,3.0,33,0.00,,,0.00,438,WeatherCatV1.11B39,2013-07-03 15:02:00,
2013-07-03 08:03:00,87.7,55.0,29.75,SSW,208,2.0,2.0,33,0.00,,,0.00,446,WeatherCatV1.11B39,2013-07-03 15:03:00,
2013-07-03 08:08:00,88.0,54.4,29.75,SW,234,2.0,2.0,32,0.00,,,0.00,457,WeatherCatV1.11B39,2013-07-03 15:08:00,
2013-07-03 08:13:00,89.0,55.3,29.75,SW,232,3.0,5.0,32,0.00,,,0.00,475,WeatherCatV1.11B39,2013-07-03 15:13:00,
2013-07-03 08:18:00,89.3,54.7,29.75,South,182,0.0,4.0,31,0.00,,,0.00,496,WeatherCatV1.11B39,2013-07-03 15:18:00,
2013-07-03 08:23:00,90.2,55.4,29.74,SSW,202,2.0,5.0,31,0.00,,,0.00,508,WeatherCatV1.11B39,2013-07-03 15:23:00,
2013-07-03 08:24:00,90.3,55.5,29.74,SSW,202,0.0,5.0,31,0.00,,,0.00,513,WeatherCatV1.11B39,2013-07-03 15:24:00,
2013-07-03 08:29:00,90.2,54.5,29.75,SSW,201,4.0,4.0,30,0.00,,,0.00,524,WeatherCatV1.11B39,2013-07-03 15:29:00,
2013-07-03 08:34:00,89.8,54.2,29.75,WSW,248,3.0,6.0,30,0.00,,,0.00,566,WeatherCatV1.11B39,2013-07-03 15:34:00,
2013-07-03 08:39:00,90.3,53.7,29.74,WSW,249,1.0,2.0,29,0.00,,,0.00,598,WeatherCatV1.11B39,2013-07-03 15:39:00,
2013-07-03 08:40:00,90.4,53.8,29.74,WSW,249,0.0,2.0,29,0.00,,,0.00,592,WeatherCatV1.11B39,2013-07-03 15:40:00,
2013-07-03 08:45:00,90.5,54.8,29.74,WNW,302,0.0,4.0,30,0.00,,,0.00,547,WeatherCatV1.11B39,2013-07-03 15:45:00,
2013-07-03 08:50:00,90.7,55.0,29.74,WSW,257,0.0,4.0,30,0.00,,,0.00,345,WeatherCatV1.11B39,2013-07-03 15:50:00,
2013-07-03 08:52:00,90.2,55.4,29.74,WSW,257,1.0,3.0,31,0.00,,,0.00,345,WeatherCatV1.11B39,2013-07-03 15:52:00,
2013-07-03 08:57:00,90.2,55.4,29.74,West,259,3.0,3.0,31,0.00,,,0.00,243,WeatherCatV1.11B39,2013-07-03 15:57:00,
2013-07-03 09:02:00,89.7,55.0,29.74,WNW,286,1.0,3.0,31,0.00,,,0.00,258,WeatherCatV1.11B39,2013-07-03 16:02:00,
2013-07-03 09:03:00,89.6,54.9,29.74,WNW,286,2.0,3.0,31,0.00,,,0.00,243,WeatherCatV1.11B39,2013-07-03 16:03:00,
2013-07-03 09:08:00,89.5,54.8,29.74,WNW,290,1.0,4.0,31,0.00,,,0.00,288,WeatherCatV1.11B39,2013-07-03 16:08:00,
2013-07-03 09:13:00,89.3,54.7,29.74,WNW,290,3.0,5.0,31,0.00,,,0.00,374,WeatherCatV1.11B39,2013-07-03 16:13:00,
2013-07-03 09:18:00,90.4,54.7,29.74,WNW,286,3.0,6.0,30,0.00,,,0.00,480,WeatherCatV1.11B39,2013-07-03 16:18:00,
2013-07-03 09:23:00,90.5,55.7,29.74,WSW,247,5.0,6.0,31,0.00,,,0.00,779,WeatherCatV1.11B39,2013-07-03 16:23:00,
2013-07-03 09:28:00,91.0,55.2,29.74,West,278,4.0,5.0,30,0.00,,,0.00,763,WeatherCatV1.11B39,2013-07-03 16:28:00,
2013-07-03 09:34:00,90.9,55.1,29.74,WSW,242,2.0,6.0,30,0.00,,,0.00,236,WeatherCatV1.11B39,2013-07-03 16:34:00,
2013-07-03 09:39:00,90.5,54.8,29.74,West,265,2.0,5.0,30,0.00,,,0.00,186,WeatherCatV1.11B39,2013-07-03 16:39:00,
2013-07-03 09:44:00,90.0,55.3,29.74,WNW,282,3.0,7.0,31,0.00,,,0.00,158,WeatherCatV1.11B39,2013-07-03 16:44:00,
2013-07-03 09:49:00,89.4,55.6,29.73,WNW,293,2.0,6.0,32,0.00,,,0.00,153,WeatherCatV1.11B39,2013-07-03 16:49:00,
2013-07-03 09:54:00,89.6,54.9,29.73,West,279,6.0,6.0,31,0.00,,,0.00,188,WeatherCatV1.11B39,2013-07-03 16:54:00,
2013-07-03 09:59:00,89.7,55.0,29.73,West,269,2.0,7.0,31,0.00,,,0.00,322,WeatherCatV1.11B39,2013-07-03 16:59:00,
2013-07-03 10:04:00,91.2,56.3,29.73,North,353,2.0,5.0,31,0.00,,,0.00,1004,WeatherCatV1.11B39,2013-07-03 17:04:00,
2013-07-03 10:09:00,94.0,54.9,29.73,North,9,1.0,5.0,27,0.00,,,0.00,937,WeatherCatV1.11B39,2013-07-03 17:09:00,
2013-07-03 10:14:00,95.0,55.7,29.73,NNE,15,2.0,5.0,27,0.00,,,0.00,925,WeatherCatV1.11B39,2013-07-03 17:14:00,
2013-07-03 10:19:00,95.9,56.5,29.73,NNW,343,1.0,6.0,27,0.00,,,0.00,930,WeatherCatV1.11B39,2013-07-03 17:19:00,
2013-07-03 10:24:00,95.0,55.7,29.73,NNE,12,6.0,8.0,27,0.00,,,0.00,949,WeatherCatV1.11B39,2013-07-03 17:24:00,
2013-07-03 10:29:00,94.4,55.2,29.72,NW,309,5.0,5.0,27,0.00,,,0.00,974,WeatherCatV1.11B39,2013-07-03 17:29:00,
2013-07-03 10:34:00,94.6,54.3,29.72,WSW,246,6.0,9.0,26,0.00,,,0.00,946,WeatherCatV1.11B39,2013-07-03 17:34:00,
2013-07-03 10:39:00,95.1,54.8,29.72,WNW,291,4.0,4.0,26,0.00,,,0.00,925,WeatherCatV1.11B39,2013-07-03 17:39:00,
2013-07-03 10:44:00,95.4,55.0,29.72,WNW,297,5.0,8.0,26,0.00,,,0.00,875,WeatherCatV1.11B39,2013-07-03 17:44:00,
2013-07-03 10:49:00,95.8,54.3,29.72,WNW,288,2.0,2.0,25,0.00,,,0.00,856,WeatherCatV1.11B39,2013-07-03 17:49:00,
2013-07-03 10:54:00,95.6,54.1,29.72,WNW,291,1.0,3.0,25,0.00,,,0.00,854,WeatherCatV1.11B39,2013-07-03 17:54:00,
2013-07-03 10:59:00,96.0,54.4,29.72,WNW,295,1.0,4.0,25,0.00,,,0.00,865,WeatherCatV1.11B39,2013-07-03 17:59:00,
2013-07-03 11:04:00,97.2,54.3,29.72,West,268,6.0,7.0,24,0.00,,,0.00,865,WeatherCatV1.11B39,2013-07-03 18:04:00,
2013-07-03 11:09:00,96.6,53.8,29.71,NNW,332,2.0,3.0,24,0.00,,,0.00,874,WeatherCatV1.11B39,2013-07-03 18:09:00,
2013-07-03 11:14:00,97.3,54.4,29.71,SSW,207,6.0,10.0,24,0.00,,,0.00,882,WeatherCatV1.11B39,2013-07-03 18:14:00,
2013-07-03 11:19:00,98.9,54.6,29.71,WSW,253,2.0,6.0,23,0.00,,,0.00,888,WeatherCatV1.11B39,2013-07-03 18:19:00,
2013-07-03 11:24:00,99.5,53.8,29.71,WSW,240,4.0,7.0,22,0.00,,,0.00,896,WeatherCatV1.11B39,2013-07-03 18:24:00,
2013-07-03 11:29:00,98.1,53.9,29.71,West,280,0.0,6.0,23,0.00,,,0.00,895,WeatherCatV1.11B39,2013-07-03 18:29:00,
2013-07-03 11:34:00,98.8,54.5,29.70,SW,222,7.0,10.0,23,0.00,,,0.00,900,WeatherCatV1.11B39,2013-07-03 18:34:00,
2013-07-03 11:39:00,98.2,54.0,29.70,WNW,292,2.0,5.0,23,0.00,,,0.00,909,WeatherCatV1.11B39,2013-07-03 18:39:00,
2013-07-03 11:44:00,98.9,54.6,29.70,South,181,5.0,9.0,23,0.00,,,0.00,911,WeatherCatV1.11B39,2013-07-03 18:44:00,
2013-07-03 11:49:00,99.6,53.9,29.70,NW,305,6.0,7.0,22,0.00,,,0.00,914,WeatherCatV1.11B39,2013-07-03 18:49:00,
2013-07-03 11:54:00,99.1,53.5,29.69,WNW,284,5.0,7.0,22,0.00,,,0.00,912,WeatherCatV1.11B39,2013-07-03 18:54:00,
2013-07-03 11:59:00,99.8,54.1,29.69,South,182,3.0,10.0,22,0.00,,,0.00,916,WeatherCatV1.11B39,2013-07-03 18:59:00,
2013-07-03 12:04:00,100.2,54.4,29.69,SSW,194,2.0,8.0,22,0.00,,,0.00,918,WeatherCatV1.11B39,2013-07-03 19:04:00,
2013-07-03 12:09:00,99.9,52.9,29.68,NNW,338,2.0,3.0,21,0.00,,,0.00,921,WeatherCatV1.11B39,2013-07-03 19:09:00,
2013-07-03 12:14:00,100.4,53.3,29.68,SW,234,1.0,7.0,21,0.00,,,0.00,926,WeatherCatV1.11B39,2013-07-03 19:14:00,
2013-07-03 12:19:00,100.7,53.6,29.68,NNW,343,6.0,7.0,21,0.00,,,0.00,925,WeatherCatV1.11B39,2013-07-03 19:19:00,
2013-07-03 12:24:00,101.0,53.8,29.68,SSW,203,6.0,9.0,21,0.00,,,0.00,925,WeatherCatV1.11B39,2013-07-03 19:24:00,
2013-07-03 12:29:00,100.4,52.0,29.68,West,280,10.0,10.0,20,0.00,,,0.00,921,WeatherCatV1.11B39,2013-07-03 19:29:00,
2013-07-03 12:34:00,100.3,53.2,29.67,West,265,7.0,11.0,21,0.00,,,0.00,926,WeatherCatV1.11B39,2013-07-03 19:34:00,
2013-07-03 12:39:00,101.0,53.8,29.67,WNW,296,3.0,6.0,21,0.00,,,0.00,926,WeatherCatV1.11B39,2013-07-03 19:39:00,
2013-07-03 12:44:00,100.4,53.3,29.67,WNW,300,8.0,9.0,21,0.00,,,0.00,925,WeatherCatV1.11B39,2013-07-03 19:44:00,
2013-07-03 12:49:00,101.5,54.2,29.67,SW,230,2.0,10.0,21,0.00,,,0.00,923,WeatherCatV1.11B39,2013-07-03 19:49:00,
2013-07-03 12:54:00,101.3,52.7,29.66,West,280,6.0,12.0,20,0.00,,,0.00,925,WeatherCatV1.11B39,2013-07-03 19:54:00,
2013-07-03 12:59:00,101.0,53.8,29.66,NW,324,5.0,11.0,21,0.00,,,0.00,921,WeatherCatV1.11B39,2013-07-03 19:59:00,
2013-07-03 13:04:00,101.7,54.4,29.66,West,266,5.0,12.0,21,0.00,,,0.00,919,WeatherCatV1.11B39,2013-07-03 20:04:00,
2013-07-03 13:09:00,101.7,53.0,29.66,NW,310,7.0,15.0,20,0.00,,,0.00,914,WeatherCatV1.11B39,2013-07-03 20:09:00,
2013-07-03 13:14:00,102.2,53.5,29.65,SW,228,9.0,9.0,20,0.00,,,0.00,914,WeatherCatV1.11B39,2013-07-03 20:14:00,
2013-07-03 13:19:00,103.0,54.1,29.65,West,281,8.0,12.0,20,0.00,,,0.00,912,WeatherCatV1.11B39,2013-07-03 20:19:00,
2013-07-03 13:24:00,102.1,53.4,29.65,WSW,253,7.0,18.0,20,0.00,,,0.00,909,WeatherCatV1.11B39,2013-07-03 20:24:00,
2013-07-03 13:29:00,102.8,53.9,29.64,SW,233,4.0,11.0,20,0.00,,,0.00,902,WeatherCatV1.11B39,2013-07-03 20:29:00,
2013-07-03 13:34:00,102.8,52.5,29.64,WSW,247,7.0,10.0,19,0.00,,,0.00,895,WeatherCatV1.11B39,2013-07-03 20:34:00,
2013-07-03 13:39:00,102.9,54.0,29.64,WNW,303,13.0,18.0,20,0.00,,,0.00,893,WeatherCatV1.11B39,2013-07-03 20:39:00,
2013-07-03 13:44:00,102.8,53.9,29.63,West,268,6.0,17.0,20,0.00,,,0.00,886,WeatherCatV1.11B39,2013-07-03 20:44:00,
2013-07-03 13:49:00,103.3,52.9,29.63,West,271,6.0,15.0,19,0.00,,,0.00,882,WeatherCatV1.11B39,2013-07-03 20:49:00,
2013-07-03 13:54:00,102.9,52.6,29.63,WSW,246,10.0,19.0,19,0.00,,,0.00,875,WeatherCatV1.11B39,2013-07-03 20:54:00,
2013-07-03 13:59:00,102.7,53.9,29.63,WSW,246,8.0,19.0,20,0.00,,,0.00,872,WeatherCatV1.11B39,2013-07-03 20:59:00,
2013-07-03 14:04:00,103.3,52.9,29.62,WSW,253,13.0,13.0,19,0.00,,,0.00,863,WeatherCatV1.11B39,2013-07-03 21:04:00,
2013-07-03 14:09:00,103.6,53.2,29.62,West,279,8.0,14.0,19,0.00,,,0.00,853,WeatherCatV1.11B39,2013-07-03 21:09:00,
2013-07-03 14:14:00,103.2,52.9,29.62,WSW,240,7.0,14.0,19,0.00,,,0.00,849,WeatherCatV1.11B39,2013-07-03 21:14:00,
2013-07-03 14:19:00,103.6,53.2,29.61,West,263,12.0,16.0,19,0.00,,,0.00,838,WeatherCatV1.11B39,2013-07-03 21:19:00,
2013-07-03 14:24:00,103.8,53.4,29.61,WSW,256,11.0,17.0,19,0.00,,,0.00,824,WeatherCatV1.11B39,2013-07-03 21:24:00,
2013-07-03 14:29:00,103.7,53.3,29.61,SW,236,6.0,14.0,19,0.00,,,0.00,817,WeatherCatV1.11B39,2013-07-03 21:29:00,
2013-07-03 14:34:00,103.5,53.1,29.60,WSW,243,9.0,12.0,19,0.00,,,0.00,812,WeatherCatV1.11B39,2013-07-03 21:34:00,
2013-07-03 14:39:00,104.3,52.3,29.60,WSW,253,8.0,13.0,18,0.00,,,0.00,803,WeatherCatV1.11B39,2013-07-03 21:39:00,
2013-07-03 14:44:00,104.3,52.3,29.60,NW,307,13.0,20.0,18,0.00,,,0.00,788,WeatherCatV1.11B39,2013-07-03 21:44:00,
2013-07-03 14:49:00,103.7,53.3,29.59,West,259,16.0,19.0,19,0.00,,,0.00,775,WeatherCatV1.11B39,2013-07-03 21:49:00,
2013-07-03 14:54:00,104.3,52.3,29.59,WNW,284,8.0,15.0,18,0.00,,,0.00,770,WeatherCatV1.11B39,2013-07-03 21:54:00,
2013-07-03 14:59:00,104.3,52.3,29.59,WNW,296,11.0,16.0,18,0.00,,,0.00,761,WeatherCatV1.11B39,2013-07-03 21:59:00,
2013-07-03 15:04:00,103.8,51.9,29.59,West,280,4.0,16.0,18,0.00,,,0.00,756,WeatherCatV1.11B39,2013-07-03 22:04:00,
2013-07-03 15:09:00,104.5,52.4,29.58,West,259,5.0,17.0,18,0.00,,,0.00,747,WeatherCatV1.11B39,2013-07-03 22:09:00,
2013-07-03 15:14:00,104.7,52.6,29.58,West,274,11.0,15.0,18,0.00,,,0.00,735,WeatherCatV1.11B39,2013-07-03 22:14:00,
2013-07-03 15:19:00,103.4,51.6,29.58,NW,317,7.0,13.0,18,0.00,,,0.00,719,WeatherCatV1.11B39,2013-07-03 22:19:00,
2013-07-03 15:24:00,104.4,52.4,29.57,NW,311,12.0,14.0,18,0.00,,,0.00,701,WeatherCatV1.11B39,2013-07-03 22:24:00,
2013-07-03 15:29:00,104.6,52.5,29.57,SW,232,13.0,19.0,18,0.00,,,0.00,686,WeatherCatV1.11B39,2013-07-03 22:29:00,
2013-07-03 15:34:00,103.4,51.6,29.57,West,267,5.0,5.0,18,0.00,,,0.00,677,WeatherCatV1.11B39,2013-07-03 22:34:00,
2013-07-03 15:39:00,104.0,52.0,29.57,SW,224,6.0,12.0,18,0.00,,,0.00,664,WeatherCatV1.11B39,2013-07-03 22:39:00,
2013-07-03 15:44:00,104.4,52.4,29.56,West,265,6.0,10.0,18,0.00,,,0.00,645,WeatherCatV1.11B39,2013-07-03 22:44:00,
2013-07-03 15:49:00,104.6,54.0,29.56,West,260,8.0,14.0,19,0.00,,,0.00,638,WeatherCatV1.11B39,2013-07-03 22:49:00,
2013-07-03 15:54:00,104.5,52.4,29.56,WSW,257,8.0,11.0,18,0.00,,,0.00,626,WeatherCatV1.11B39,2013-07-03 22:54:00,
2013-07-03 15:59:00,104.3,53.8,29.56,West,272,8.0,12.0,19,0.00,,,0.00,610,WeatherCatV1.11B39,2013-07-03 22:59:00,
2013-07-03 16:04:00,105.2,53.0,29.55,West,263,7.0,15.0,18,0.00,,,0.00,601,WeatherCatV1.11B39,2013-07-03 23:04:00,
2013-07-03 16:09:00,104.3,53.8,29.55,West,278,11.0,17.0,19,0.00,,,0.00,584,WeatherCatV1.11B39,2013-07-03 23:09:00,
2013-07-03 16:14:00,104.1,53.6,29.55,West,275,11.0,11.0,19,0.00,,,0.00,566,WeatherCatV1.11B39,2013-07-03 23:14:00,
2013-07-03 16:19:00,104.4,53.8,29.54,West,261,10.0,15.0,19,0.00,,,0.00,552,WeatherCatV1.11B39,2013-07-03 23:19:00,
2013-07-03 16:24:00,104.6,52.5,29.54,NW,315,6.0,14.0,18,0.00,,,0.00,538,WeatherCatV1.11B39,2013-07-03 23:24:00,
2013-07-03 16:29:00,104.3,52.3,29.54,West,274,12.0,12.0,18,0.00,,,0.00,517,WeatherCatV1.11B39,2013-07-03 23:29:00,
2013-07-03 16:34:00,103.8,53.4,29.53,WSW,253,11.0,13.0,19,0.00,,,0.00,499,WeatherCatV1.11B39,2013-07-03 23:34:00,
2013-07-03 16:39:00,103.9,53.4,29.53,West,276,12.0,20.0,19,0.00,,,0.00,492,WeatherCatV1.11B39,2013-07-03 23:39:00,
2013-07-03 16:44:00,103.6,53.2,29.53,WNW,288,9.0,12.0,19,0.00,,,0.00,476,WeatherCatV1.11B39,2013-07-03 23:44:00,
2013-07-03 16:49:00,103.6,53.2,29.52,NW,304,8.0,12.0,19,0.00,,,0.00,459,WeatherCatV1.11B39,2013-07-03 23:49:00,
2013-07-03 16:54:00,103.3,52.9,29.52,WNW,298,8.0,13.0,19,0.00,,,0.00,445,WeatherCatV1.11B39,2013-07-03 23:54:00,
2013-07-03 16:59:00,103.1,52.8,29.51,West,272,3.0,12.0,19,0.00,,,0.00,427,WeatherCatV1.11B39,2013-07-03 23:59:00,
2013-07-03 17:04:00,103.6,53.2,29.51,West,267,11.0,17.0,19,0.00,,,0.00,415,WeatherCatV1.11B39,2013-07-04 00:04:00,
2013-07-03 17:09:00,103.5,53.1,29.51,WNW,293,7.0,10.0,19,0.00,,,0.00,397,WeatherCatV1.11B39,2013-07-04 00:09:00,
2013-07-03 17:14:00,103.6,53.2,29.51,WNW,294,6.0,14.0,19,0.00,,,0.00,385,WeatherCatV1.11B39,2013-07-04 00:14:00,
2013-07-03 17:19:00,103.4,53.0,29.50,WNW,282,13.0,16.0,19,0.00,,,0.00,373,WeatherCatV1.11B39,2013-07-04 00:19:00,
2013-07-03 17:24:00,103.5,53.1,29.50,West,272,6.0,13.0,19,0.00,,,0.00,353,WeatherCatV1.11B39,2013-07-04 00:24:00,
2013-07-03 17:29:00,102.9,52.6,29.51,WNW,288,7.0,14.0,19,0.00,,,0.00,325,WeatherCatV1.11B39,2013-07-04 00:29:00,
2013-07-03 17:34:00,102.8,52.5,29.51,NW,325,9.0,14.0,19,0.00,,,0.00,309,WeatherCatV1.11B39,2013-07-04 00:34:00,
2013-07-03 17:39:00,102.4,52.2,29.50,WNW,301,10.0,15.0,19,0.00,,,0.00,294,WeatherCatV1.11B39,2013-07-04 00:39:00,
2013-07-03 17:44:00,102.6,52.4,29.50,NW,306,4.0,9.0,19,0.00,,,0.00,274,WeatherCatV1.11B39,2013-07-04 00:44:00,
2013-07-03 17:49:00,102.8,52.5,29.50,WNW,284,7.0,13.0,19,0.00,,,0.00,239,WeatherCatV1.11B39,2013-07-04 00:49:00,
2013-07-03 17:54:00,102.5,52.3,29.50,West,271,5.0,13.0,19,0.00,,,0.00,241,WeatherCatV1.11B39,2013-07-04 00:54:00,
2013-07-03 17:59:00,102.2,52.1,29.51,WNW,286,7.0,12.0,19,0.00,,,0.00,227,WeatherCatV1.11B39,2013-07-04 00:59:00,
2013-07-03 18:04:00,102.0,51.9,29.51,West,276,4.0,14.0,19,0.00,,,0.00,207,WeatherCatV1.11B39,2013-07-04 01:04:00,
2013-07-03 18:09:00,101.7,51.7,29.51,WNW,303,10.0,17.0,19,0.00,,,0.00,77,WeatherCatV1.11B39,2013-07-04 01:09:00,
2013-07-03 18:14:00,101.0,52.5,29.51,WNW,283,4.0,9.0,20,0.00,,,0.00,76,WeatherCatV1.11B39,2013-07-04 01:14:00,
2013-07-03 18:19:00,100.6,52.2,29.52,West,266,5.0,11.0,20,0.00,,,0.00,69,WeatherCatV1.11B39,2013-07-04 01:19:00,
2013-07-03 18:24:00,100.4,52.0,29.52,NW,310,7.0,8.0,20,0.00,,,0.00,67,WeatherCatV1.11B39,2013-07-04 01:24:00,
2013-07-03 18:29:00,100.3,53.2,29.52,West,280,5.0,9.0,21,0.00,,,0.00,62,WeatherCatV1.11B39,2013-07-04 01:29:00,
2013-07-03 18:34:00,100.1,53.1,29.52,WNW,290,7.0,8.0,21,0.00,,,0.00,60,WeatherCatV1.11B39,2013-07-04 01:34:00,
2013-07-03 18:39:00,100.0,53.0,29.52,West,276,4.0,11.0,21,0.00,,,0.00,56,WeatherCatV1.11B39,2013-07-04 01:39:00,
2013-07-03 18:44:00,100.0,53.0,29.52,NNW,334,4.0,12.0,21,0.00,,,0.00,53,WeatherCatV1.11B39,2013-07-04 01:44:00,
2013-07-03 18:49:00,99.9,52.9,29.52,WNW,288,3.0,8.0,21,0.00,,,0.00,47,WeatherCatV1.11B39,2013-07-04 01:49:00,
2013-07-03 18:54:00,99.8,52.8,29.53,NW,321,2.0,6.0,21,0.00,,,0.00,40,WeatherCatV1.11B39,2013-07-04 01:54:00,
2013-07-03 18:59:00,99.6,52.7,29.53,West,278,6.0,7.0,21,0.00,,,0.00,32,WeatherCatV1.11B39,2013-07-04 01:59:00,
2013-07-03 19:04:00,99.5,52.6,29.53,NW,319,2.0,4.0,21,0.00,,,0.00,25,WeatherCatV1.11B39,2013-07-04 02:04:00,
2013-07-03 19:09:00,99.3,52.4,29.53,WNW,301,5.0,8.0,21,0.00,,,0.00,18,WeatherCatV1.11B39,2013-07-04 02:09:00,
2013-07-03 19:14:00,99.2,52.3,29.53,NW,325,4.0,9.0,21,0.00,,,0.00,9,WeatherCatV1.11B39,2013-07-04 02:14:00,
2013-07-03 19:19:00,99.0,53.4,29.54,NW,321,6.0,8.0,22,0.00,,,0.00,5,WeatherCatV1.11B39,2013-07-04 02:19:00,
2013-07-03 19:24:00,99.0,53.4,29.54,NW,315,8.0,11.0,22,0.00,,,0.00,0,WeatherCatV1.11B39,2013-07-04 02:24:00,
2013-07-03 19:29:00,98.9,53.4,29.53,WNW,290,6.0,7.0,22,0.00,,,0.00,0,WeatherCatV1.11B39,2013-07-04 02:29:00,
2013-07-03 19:34:00,98.8,53.3,29.54,NNW,336,2.0,7.0,22,0.00,,,0.00,0,WeatherCatV1.11B39,2013-07-04 02:34:00,
2013-07-03 19:40:00,98.6,53.1,29.54,WNW,290,5.0,7.0,22,0.00,,,0.00,0,WeatherCatV1.11B39,2013-07-04 02:40:00,
2013-07-03 19:45:00,98.5,53.0,29.54,NNW,338,5.0,7.0,22,0.00,,,0.00,0,WeatherCatV1.11B39,2013-07-04 02:45:00,
2013-07-03 19:50:00,98.4,52.9,29.54,NW,307,2.0,5.0,22,0.00,,,0.00,0,WeatherCatV1.11B39,2013-07-04 02:50:00,
2013-07-03 19:55:00,98.2,52.8,29.54,WNW,284,1.0,6.0,22,0.00,,,0.00,0,WeatherCatV1.11B39,2013-07-04 02:55:00,
2013-07-03 20:00:00,98.1,52.7,29.54,NNW,334,3.0,10.0,22,0.00,,,0.00,0,WeatherCatV1.11B39,2013-07-04 03:00:00,
2013-07-03 20:05:00,98.2,52.8,29.54,NNW,331,4.0,6.0,22,0.00,,,0.00,0,WeatherCatV1.11B39,2013-07-04 03:05:00,
2013-07-03 20:10:00,98.1,52.7,29.54,NW,317,6.0,10.0,22,0.00,,,0.00,0,WeatherCatV1.11B39,2013-07-04 03:10:00,
2013-07-03 20:15:00,98.2,51.5,29.54,NNW,348,4.0,11.0,21,0.00,,,0.00,0,WeatherCatV1.11B39,2013-07-04 03:15:00,
2013-07-03 20:20:00,98.1,50.1,29.54,NNW,343,7.0,11.0,20,0.00,,,0.00,0,WeatherCatV1.11B39,2013-07-04 03:20:00,
2013-07-03 20:25:00,98.2,50.2,29.54,NW,323,3.0,8.0,20,0.00,,,0.00,0,WeatherCatV1.11B39,2013-07-04 03:25:00,
2013-07-03 20:30:00,98.1,50.1,29.54,NNW,336,9.0,10.0,20,0.00,,,0.00,0,WeatherCatV1.11B39,2013-07-04 03:30:00,
2013-07-03 20:35:00,98.1,50.1,29.53,WNW,294,5.0,9.0,20,0.00,,,0.00,0,WeatherCatV1.11B39,2013-07-04 03:35:00,
2013-07-03 20:40:00,98.0,50.0,29.53,NW,310,5.0,8.0,20,0.00,,,0.00,0,WeatherCatV1.11B39,2013-07-04 03:40:00,
2013-07-03 20:45:00,97.8,49.9,29.54,NW,312,3.0,4.0,20,0.00,,,0.00,0,WeatherCatV1.11B39,2013-07-04 03:45:00,
2013-07-03 20:50:00,97.1,50.6,29.54,NW,321,3.0,5.0,21,0.00,,,0.00,0,WeatherCatV1.11B39,2013-07-04 03:50:00,
2013-07-03 20:55:00,96.9,49.1,29.54,WNW,301,5.0,8.0,20,0.00,,,0.00,0,WeatherCatV1.11B39,2013-07-04 03:55:00,
2013-07-03 21:00:00,96.9,49.1,29.55,West,281,2.0,7.0,20,0.00,,,0.00,0,WeatherCatV1.11B39,2013-07-04 04:00:00,
2013-07-03 21:01:00,96.9,49.1,29.55,West,281,0.0,7.0,20,0.00,,,0.00,0,WeatherCatV1.11B39,2013-07-04 04:01:00,
2013-07-03 21:02:00,96.8,49.1,29.55,WNW,282,2.0,3.0,20,0.00,,,0.00,0,WeatherCatV1.11B39,2013-07-04 04:02:00,
2013-07-03 21:03:00,96.7,49.0,29.55,WNW,282,2.0,3.0,20,0.00,,,0.00,0,WeatherCatV1.11B39,2013-07-04 04:03:00,
2013-07-03 21:04:00,96.6,48.9,29.55,WNW,282,3.0,4.0,20,0.00,,,0.00,0,WeatherCatV1.11B39,2013-07-04 04:04:00,
2013-07-03 21:08:00,96.3,48.6,29.55,WNW,284,0.0,3.0,20,0.00,,,0.00,0,WeatherCatV1.11B39,2013-07-04 04:08:00,
2013-07-03 21:13:00,95.7,49.5,29.55,West,280,5.0,7.0,21,0.00,,,0.00,0,WeatherCatV1.11B39,2013-07-04 04:13:00,
2013-07-03 21:18:00,95.4,47.9,29.55,NW,307,4.0,6.0,20,0.00,,,0.00,0,WeatherCatV1.11B39,2013-07-04 04:18:00,
2013-07-03 21:23:00,95.5,49.3,29.55,WNW,297,2.0,3.0,21,0.00,,,0.00,0,WeatherCatV1.11B39,2013-07-04 04:23:00,
2013-07-03 21:28:00,94.9,48.8,29.55,West,278,3.0,5.0,21,0.00,,,0.00,0,WeatherCatV1.11B39,2013-07-04 04:28:00,
2013-07-03 21:33:00,94.8,48.7,29.55,NW,305,6.0,7.0,21,0.00,,,0.00,0,WeatherCatV1.11B39,2013-07-04 04:33:00,
2013-07-03 21:38:00,94.8,48.7,29.55,NW,309,1.0,5.0,21,0.00,,,0.00,0,WeatherCatV1.11B39,2013-07-04 04:38:00,
2013-07-03 21:43:00,94.4,48.4,29.55,NNW,343,2.0,6.0,21,0.00,,,0.00,0,WeatherCatV1.11B39,2013-07-04 04:43:00,
2013-07-03 21:48:00,94.6,48.6,29.55,NW,321,2.0,6.0,21,0.00,,,0.00,0,WeatherCatV1.11B39,2013-07-04 04:48:00,
2013-07-03 21:53:00,95.4,49.2,29.56,WNW,302,3.0,9.0,21,0.00,,,0.00,0,WeatherCatV1.11B39,2013-07-04 04:53:00,
2013-07-03 21:58:00,96.0,48.4,29.56,WNW,284,4.0,7.0,20,0.00,,,0.00,0,WeatherCatV1.11B39,2013-07-04 04:58:00,
2013-07-03 22:03:00,95.9,48.3,29.57,North,357,1.0,3.0,20,0.00,,,0.00,0,WeatherCatV1.11B39,2013-07-04 05:03:00,
2013-07-03 22:08:00,95.2,49.1,29.57,North,357,0.0,1.0,21,0.00,,,0.00,0,WeatherCatV1.11B39,2013-07-04 05:08:00,
2013-07-03 22:13:00,94.2,49.5,29.57,North,357,0.0,1.0,22,0.00,,,0.00,0,WeatherCatV1.11B39,2013-07-04 05:13:00,
2013-07-03 22:18:00,93.8,49.1,29.57,North,357,0.0,1.0,22,0.00,,,0.00,0,WeatherCatV1.11B39,2013-07-04 05:18:00,
2013-07-03 22:23:00,93.1,48.6,29.58,North,357,0.0,2.0,22,0.00,,,0.00,0,WeatherCatV1.11B39,2013-07-04 05:23:00,
2013-07-03 22:28:00,92.1,48.9,29.58,NNE,15,1.0,2.0,23,0.00,,,0.00,0,WeatherCatV1.11B39,2013-07-04 05:28:00,
2013-07-03 22:33:00,91.5,49.6,29.58,NNE,16,0.0,0.0,24,0.00,,,0.00,0,WeatherCatV1.11B39,2013-07-04 05:33:00,
2013-07-03 22:38:00,90.6,48.8,29.58,NNE,16,0.0,0.0,24,0.00,,,0.00,0,WeatherCatV1.11B39,2013-07-04 05:38:00,
2013-07-03 22:43:00,89.3,49.9,29.58,NNE,16,0.0,1.0,26,0.00,,,0.00,0,WeatherCatV1.11B39,2013-07-04 05:43:00,
2013-07-03 22:48:00,89.2,49.8,29.58,ENE,78,1.0,1.0,26,0.00,,,0.00,0,WeatherCatV1.11B39,2013-07-04 05:48:00,
2013-07-03 22:53:00,88.7,50.4,29.58,East,96,1.0,2.0,27,0.00,,,0.00,0,WeatherCatV1.11B39,2013-07-04 05:53:00,
2013-07-03 22:58:00,89.1,50.7,29.58,East,96,1.0,1.0,27,0.00,,,0.00,0,WeatherCatV1.11B39,2013-07-04 05:58:00,
2013-07-03 23:03:00,89.1,50.7,29.58,East,96,1.0,1.0,27,0.00,,,0.00,0,WeatherCatV1.11B39,2013-07-04 06:03:00,
2013-07-03 23:08:00,88.2,50.9,29.58,East,96,0.0,1.0,28,0.00,,,0.00,0,WeatherCatV1.11B39,2013-07-04 06:08:00,
2013-07-03 23:13:00,86.9,49.8,29.58,East,96,0.0,2.0,28,0.00,,,0.00,0,WeatherCatV1.11B39,2013-07-04 06:13:00,
2013-07-03 23:18:00,86.7,49.7,29.59,East,97,1.0,1.0,28,0.00,,,0.00,0,WeatherCatV1.11B39,2013-07-04 06:18:00,
2013-07-03 23:23:00,86.5,50.4,29.59,East,97,0.0,1.0,29,0.00,,,0.00,0,WeatherCatV1.11B39,2013-07-04 06:23:00,
2013-07-03 23:28:00,85.8,49.8,29.59,East,99,0.0,2.0,29,0.00,,,0.00,0,WeatherCatV1.11B39,2013-07-04 06:28:00,
2013-07-03 23:33:00,85.4,51.3,29.59,East,100,0.0,1.0,31,0.00,,,0.00,0,WeatherCatV1.11B39,2013-07-04 06:33:00,
2013-07-03 23:38:00,84.6,50.6,29.59,East,100,1.0,3.0,31,0.00,,,0.00,0,WeatherCatV1.11B39,2013-07-04 06:38:00,
2013-07-03 23:43:00,84.4,50.4,29.59,East,99,1.0,2.0,31,0.00,,,0.00,0,WeatherCatV1.11B39,2013-07-04 06:43:00,
2013-07-03 23:48:00,85.6,50.6,29.59,East,99,2.0,3.0,30,0.00,,,0.00,0,WeatherCatV1.11B39,2013-07-04 06:48:00,
2013-07-03 23:53:00,86.5,50.4,29.59,East,93,4.0,4.0,29,0.00,,,0.00,0,WeatherCatV1.11B39,2013-07-04 06:53:00,
2013-07-03 23:58:00,87.1,50.9,29.59,East,93,2.0,2.0,29,0.00,,,0.00,0,WeatherCatV1.11B39,2013-07-04 06:58:00,